Location: *
(6.0000°S, 32.3997°W)
Time: 19:59:26
(UTC+00:00)

Cosmos 1939 Rocket - Pass Details

Date: 01 April 2020
Orbit: 533 x 584 km, 97.4° (Epoch: 28 May)

Event Time Altitude Azimuth Distance (km) Brightness Sun altitude
Rises 21:03:30 0° 164° (SSE) 2,794 6.2 -13.0°
Reaches altitude 10° 21:05:41 10° 161° (SSE) 1,885 5.3 -13.5°
Maximum altitude 21:09:44 63° 79° (E) 637 2.8 -14.5°
Drops below altitude 10° 21:13:41 10° 358° (N) 1,843 5.6 -15.5°
Sets 21:15:48 0° 355° (N) 2,725 6.5 -16.0°
